Location: Moscow
(38.8570°N, 84.2291°W)
Time: 20:39:41
(UTC+00:00)

O/OREOS (USA 219) - Pass Details

Date: 12 March 2026
Orbit: 577 x 597 km, 72.0° (Epoch: 21 April)

Event Time Altitude Azimuth Distance (km) Brightness Sun altitude
Rises 00:45:03 0° 345° (NNW) 2,845 ? -13.4°
Reaches altitude 10° 00:47:23 10° 351° (N) 1,936 ? -13.9°
Maximum altitude 00:51:33 45° 65° (ENE) 819 ? -14.7°
Enters shadow 00:53:53 23° 126° (SE) 1,282 ? -15.2°
